Flag for Germany Weather past 2 weeks in Göppingen, Baden-Württemberg, Germany

Now
82 °F

Clear.


Feels Like: 82 °F
Forecast: 66 / 80 °F
Wind: 5 mph from Southwest

Location: Stoetten

Current Time: Jul 5, 2015 at 10:21:51 PM

Latest Report: Jul 5, 2015 at 10:00 PM


Visibility: 18 mi

Pressure: 29.88 "Hg

Humidity: 50%

Dew point: 61 °F

Location of GöppingenLocation

Historic Weather in Göppingen — Graph

°F

Göppingen temperature yesterday

Maximum temperature yesterday: 89 °F (at 4:00 PM)
Minimum temperature yesterday: 69 °F (at 7:00 AM)
Average temperature yesterday: 80 °F

Past Weeks' High & Low Weather Summary

 TemperatureHumidityPressure
High90 °F (Jul 5, 5:00 PM)100% (Jun 22, 5:00 AM)30.23 "Hg (Jun 22, 5:00 AM)
Low44 °F (Jun 21, 2:00 AM)35% (Jun 30, 4:00 PM)29.74 "Hg (Jun 22, 10:00 PM)
Average65 °F67%30.09 "Hg
* Reported Jun 20 9:00 PM — Jul 5 9:00 PM, Göppingen, Weather by CustomWeather, © 2015

Note: Actual official high and low records may vary slightly from our data, if they occured in-between our weather recording intervals... More about our weather records

Advertising

Göppingen weather history for previous 24 hours

 ConditionsComfort  
Time TempWeatherWind HumidityBarometerVisibility
9:00 PM
Sun, Jul 5
83 °FSunny.3 mph47%29.85 "Hg19 mi
8:00 PM86 °FSunny.2 mph42%29.85 "Hg22 mi
7:00 PM89 °FSunny.2 mph39%29.86 "Hg19 mi
6:00 PM90 °FSunny.3 mph41%29.86 "Hg16 mi
5:00 PM90 °FScattered clouds.3 mph39%29.88 "Hg37 mi
4:00 PM89 °FScattered clouds.3 mph38%29.90 "Hg37 mi
3:00 PM89 °FScattered clouds.3 mph42%29.92 "Hg37 mi
2:00 PM89 °FScattered clouds.3 mph38%29.94 "Hg37 mi
1:00 PM88 °FScattered clouds.3 mph40%29.95 "Hg37 mi
12:00 PM87 °FPassing clouds.2 mph41%29.97 "Hg34 mi
11:00 AM84 °FPassing clouds.2 mph50%29.98 "Hg34 mi
10:00 AM84 °FPassing clouds.2 mph51%29.99 "Hg34 mi
9:00 AM83 °FPassing clouds.2 mph51%30.00 "Hg34 mi
8:00 AM81 °FPassing clouds.2 mph49%30.01 "Hg34 mi
7:00 AM78 °FPassing clouds.2 mph51%30.03 "Hg28 mi
5:00 AM76 °FClear.2 mph57%30.05 "Hg12 mi
4:00 AM76 °FClear.2 mph55%30.06 "Hg15 mi
3:00 AM77 °FClear.1 mph51%30.06 "Hg15 mi
2:00 AM79 °FClear.1 mph48%30.06 "Hg15 mi
1:00 AM79 °FClear.2 mph48%30.06 "Hg12 mi
12:00 AM79 °FClear.1 mph46%30.07 "Hg15 mi
11:00 PM
Sat, Jul 4
80 °FClear.2 mph46%30.07 "Hg17 mi
10:00 PM79 °FClear.3 mph48%30.08 "Hg17 mi
Weather by CustomWeather, © 2015

See weather overviewHow to use our weather pages